Regional Weather Roundup
Issued by NWS Pendleton, OR

Home | Current Version | Previous Version | Text Only | Print | Product List | Glossary On
Versions: 1 2 3 4 5 6 7 8 9 10 11 12 13 14 15 16 17 18 19 20 21 22 23 24 25 26 27 28 29 30 31 32 33 34 35 36 37 38 39 40 41 42 43 44 45 46 47 48 49 50
000
ASUS46 KPDT 231425
RWRPDT
PENDLETON REGIONAL WEATHER ROUNDUP
NATIONAL WEATHER SERVICE PENDLETON OREGON
700 AM PDT THU OCT 23 2014

NOTE: FAIR INDICATES FEW OR NO CLOUDS BELOW 12,000 FEET WITH NO
SIGNIFICANT WEATHER AND/OR OBSTRUCTIONS TO VISIBILITY.

# INDICATES UNOFFICIAL STATION AND DATA

WAZ520-231510-
EAST SLOPES OF WASHINGTON CASCADES

CITY            SKY/WX      TMP DP  RH  WIND    PRES   REMARKS
#BUMPING DAM    N/A         40  N/A N/A S3      N/A
#CLE ELUM HS    N/A         43  43  100 CALM    29.73R
#CLE ELUM 2NW   N/A         42  42  100 SW1     N/A
#CLE ELUM LAKE  N/A         N/A N/A N/A SW3     29.73R
#CLIFFDEL 2NW   N/A         41  41  100 CALM    N/A
#GLENWOOD       N/A         46  45  96  CALM    29.77R
#MANASTASH CYN  N/A         42  39  89  CALM    29.75R
#NELSON         N/A         42  41  96  CALM    29.78S
#NELSON 3SW     N/A         41  40  96  CALM    29.95F
#NILE           N/A         41  40  96  CALM    29.03R
#RONALD 2NW     N/A         43  41  93  CALM    29.65R
#SNOWDEN        N/A         47  44  89  CALM    N/A
#TEANAWAY 4NE   N/A         42  42  100 CALM    N/A
#TROUT LAKE HS  N/A         47  47  100 CALM    N/A
#TROUT LAKE 1NE N/A         45  44  96  CALM    29.78S
$$

WAZ521-231510-
SIMCOE HIGHLANDS

CITY            SKY/WX      TMP DP  RH  WIND    PRES   REMARKS
#BICKLETON HS   N/A         46  39  76  W5      29.88R
#CENTERVILLE 4W N/A         49  46  89  N3      29.55R
#CENTERVILLE 1SWN/A         48  45  89  CALM    29.75R
#GOLDENDALE     N/A         49  48  96  CALM    N/A
#GOLDENDALE 1NE N/A         49  49  100 CALM    N/A
#GOLDENDALE 1S  N/A         49  47  93  CALM    29.78R
#GOLDENDALE 5WNWN/A         48  46  93  CALM    29.74S
#GOODNOE HILLS  N/A         52  47  83  W5      29.72R
#LYLE 6NE       N/A         49  48  96  CALM    29.75R
$$

WAZ026-231510-
KITTITAS VALLEY

CITY            SKY/WX      TMP DP  RH  WIND    PRES   REMARKS
ELLENSBURG AP   LGT RAIN    47  43  86  CALM    29.76S
#ELLENSBURG CWU N/A         45  43  93  CALM    29.71R
#ELLENSBURG 3NE N/A         44  42  93  CALM    29.78S
#ELLENSBURG     N/A         48  48  100 CALM    N/A
#KITTITAS 3S    N/A         43  42  96  CALM    29.75R
#THORP 6N       N/A         43  42  96  CALM    29.75S
$$

WAZ027-231510-
YAKIMA VALLEY

CITY            SKY/WX      TMP DP  RH  WIND    PRES   REMARKS
SUNNYSIDE AP    CLOUDY      54  48  80  S5      29.77R
YAKIMA AIRPORT  CLOUDY      48  45  89  CALM    29.76R
YAKIMA-VAGABOND CLOUDY      48  45  89  E2      29.77R
#COWICHE 1N     N/A         46  42  86  NW1     29.92R
#DONALD 2NE     N/A         52  44  74  CALM    30.09R
#GRANDVIEW      N/A         54  49  83  CALM    29.77R
#MABTON         N/A         56  49  77  S2      29.77R
#MOXEE 2E       N/A         52  42  69  E2      29.74R
#NACHES 2SW     N/A         46  44  93  CALM    29.73S
#OUTLOOK DOT    N/A         N/A N/A N/A E2      N/A
#SELAH 8E       N/A         48  44  86  S7      N/A
#TERRACE HTS    N/A         50  46  86  CALM    29.72R
#WAPATO 4NE     N/A         52  44  74  CALM    30.09R
#WEST VALLEY    N/A         47  44  89  CALM    29.73R
#W YAKIMA       N/A         48  44  86  W3      29.76R
#WHITE SWAN 5E  N/A         52  46  80  SW2     29.75R
#WILEY CITY 3W  N/A         45  32  60  CALM    29.96S
$$

WAZ028-231510-
LOWER COLUMBIA BASIN...WASHINGTON

CITY            SKY/WX      TMP DP  RH  WIND    PRES   REMARKS
HANFORD         CLOUDY      55  46  72  E5      29.73S
PASCO           LGT RAIN    58  54  87  S13     29.78R
PROSSER AWOS    N/A         55  52  90  W6      29.80R
RICHLAND AWOS   CLOUDY      57  52  83  S6      29.76S
#CONNELL 5N     N/A         53  51  93  SE3     29.75S
#CONNELL 5NW    N/A         53  51  93  S7      29.71S
#ELTOPIA        N/A         55  53  93  CALM    29.74R
#ELTOPIA 6NW    N/A         54  53  96  S3      28.73F
#KENNEWICK 3S   N/A         55  52  90  CALM    29.76R
#PASCO-BROADMOORN/A         57  53  86  S1      29.65R
#PATERSON       N/A         55  53  93  CALM    29.76R
#PROSSER        N/A         54  50  86  S7      29.75R
#SAGEMOOR 2W    N/A         55  53  93  SE2     29.61R
#TOUCHET 2S     N/A         55  52  90  CALM    29.74F
#WEST PASCO     N/A         58  52  80  S2      29.75R
$$

WAZ029-231510-
FOOTHILLS OF THE BLUES...WASHINGTON

CITY            SKY/WX      TMP DP  RH  WIND    PRES   REMARKS
WALLA WALLA AP  CLOUDY      57  53  86  SE9     29.78S
#LOWDEN 2SE     N/A         56  54  93  SE1     29.74F
#PLEASANT VIEW 1N/A         52  51  96  S2      29.78F
#PRESCOTT       N/A         54  53  96  CALM    29.74S
#SUDBURY        N/A         57  N/A N/A CALM    N/A
#WHITMAN COLLEGEN/A         56  53  90  E1      29.79S
#WAITSBURG 8N   N/A         53  50  89  SE6     29.71F
#WALLA WALLA 5E N/A         60  49  67  CALM    N/A
#WALLA WALLA U  N/A         57  55  93  CALM    29.75R
#WHITMAN MISSIONN/A         56  54  93  CALM    29.76F
$$

WAZ030-231510-
BLUE MOUNTAINS...WASHINGTON

CITY            SKY/WX      TMP DP  RH  WIND    PRES   REMARKS
$$

ORZ009-041-WAZ024-231510-
COLUMBIA RIVER GORGE

CITY            SKY/WX      TMP DP  RH  WIND    PRES   REMARKS
HOOD RIVER AP   LGT RAIN    50  50  100 N3      29.78S
THE DALLES AP   LGT RAIN    53  51  93  NW6     29.79R
#ARLINGTON AIRPON/A         53  49  86  W3      29.98S
#ARLINGTON HS   N/A         55  49  80  CALM    29.68S
#CELILO DOT     N/A         55  48  77  S2      N/A
#LYLE           N/A         53  51  93  N1      29.79S
#MARYHILL 2W    N/A         54  52  93  CALM    N/A
#MOSIER 1S      N/A         50  48  93  CALM    N/A
#MURDOCK        N/A         55  53  93  CALM    29.79S
#RUFUS DOT      N/A         N/A N/A N/A SW17G25 N/A

$$

ORZ510-231510-
NORTH CENTRAL OREGON

CITY            SKY/WX      TMP DP  RH  WIND    PRES   REMARKS
#CHENOWITH 1W   N/A         48  47  96  NW7     N/A
#COW CYN RST AREN/A         50  49  96  S7      N/A
#DUFUR 9E       N/A         48  44  86  CALM    29.79R
#GRASS VALLEY   N/A         49  49  100 S3      N/A
#GRASS VALLEY 1SN/A         50  48  93  CALM    29.77F
#KENT DOT       N/A         50  42  74  S7      N/A
#MAUPIN SCHOOL  N/A         55  50  83  CALM    28.66R
#MORO SCHOOL    N/A         48  48  100 CALM    29.81R
#SHANIKO 5WSW   N/A         48  43  83  S18     N/A    WCI 41
#SHANIKO 4NW    N/A         48  46  93  S17     29.79S WCI 42
#TYGH VALLEY 2NEN/A         53  49  86  CALM    29.75R
#WAPANITIA AIRPON/A         53  47  80  CALM    29.75S
#WASCO DOT      N/A         48  46  93  CALM    N/A
#WASCO 5NE      N/A         48  45  89  CALM    29.77R
$$

ORZ511-231510-
CENTRAL OREGON

CITY            SKY/WX      TMP DP  RH  WIND    PRES   REMARKS
BEND AIRPORT    CLOUDY      52  45  77  SW15    29.85R
MADRAS AIRPORT  CLOUDY      50  50  100 SE8     29.81F
PRINEVILLE AP   CLOUDY      55  45  69  S14     29.84R
REDMOND AIRPORT LGT RAIN    51  45  80  W6      29.84R
#BEND 6E        N/A         52  42  69  CALM    29.71R
#BEND 1SW       N/A         47  46  96  SW2     N/A
#BEND-KIM LN    N/A         49  46  89  SW5     29.81R
#CROOKED RVR RANN/A         50  48  93  S1      29.74F
#CULVER         N/A         52  47  83  S5      29.78R
#LAKE BILLY CHINN/A         51  46  83  SE8     29.86F
#POWELL BUTTE 3EN/A         56  43  62  S3      N/A
#POWELL BUTTE   N/A         53  44  71  SW3     29.50R
#PRINEVILLE 3N  N/A         52  47  83  S3      29.74R
#WARM SPRINGS   N/A         52  50  93  CALM    29.78R


ORZ509-231510-
EAST SLOPES OF OREGON CASCADES

CITY            SKY/WX      TMP DP  RH  WIND    PRES   REMARKS
#CAMP SHERMAN   N/A         48  46  93  CALM    29.76R
#LA PINE DOT    N/A         46  45  96  SE3     N/A
#LA PINE 4NW    N/A         46  43  89  CALM    29.86R
#LAVA BUTTE DOT N/A         46  44  93  S6      N/A
#SISTERS AIRPOR N/A         47  47  100 CALM    29.91S
#SISTERS ODOT   N/A         47  N/A N/A CALM    N/A
#SISTERS 3N     N/A         47  45  93  CALM    29.86S
#SUNRIVER       N/A         47  46  96  SW3     29.68R
#SUNRIVER AP    N/A         46  44  93  SW7     29.77R
#SUTTLE LK DOT  N/A         42  42  100 W8      N/A
#TUMALO 3W      N/A         47  45  93  S1      29.68R
#WANOGA BUTTE D N/A         41  N/A N/A W9      N/A

$$

ORZ044-231510-
LOWER COLUMBIA BASIN...OREGON

CITY            SKY/WX      TMP DP  RH  WIND    PRES   REMARKS
HERMISTON       LGT RAIN    55  52  90  CALM    29.77F
#BOARDMAN SCHOOLN/A         65  51  60  CALM    29.78R
#BOARDMAN 3W    N/A         54  53  96  SE3     29.47R
#BOARDMAN 8SW   N/A         55  52  90  CALM    29.77R
#ECHO 8SW       N/A         54  50  86  CALM    29.74F
#IONE SCHOOL    N/A         54  44  69  CALM    29.78R
#IRRIGON 4NW    N/A         56  54  93  SE5     N/A
#UMATILLA SCHOOLN/A         54  54  100 S5      29.83R
#UMATILLA       N/A         57  50  77  S5      29.75S
$$

ORZ507-231510-
NORTHERN FOOTHILLS OF THE BLUES

CITY            SKY/WX      TMP DP  RH  WIND    PRES   REMARKS
PENDLETON AIRPT MOCLDY      52  50  93  SE5     29.78S
#ADAMS 3WNW     N/A         54  51  90  E1      29.74F
#ATHENA         N/A         52  50  93  CALM    29.76F
#CAYUSE         N/A         54  50  86  E3      29.74S
#HELIX SCHOOL   N/A         52  50  93  CALM    29.74F
#HELIX 3N       N/A         53  50  89  N6      29.76F
#HOLDMAN 5SE    N/A         52  50  93  CALM    29.80S
#HOLDMAN 6E     N/A         52  50  93  CALM    29.57F
#M-F FERNDALE   N/A         55  50  83  CALM    29.78S
#M-FREEWATER 5SEN/A         53  50  89  CALM    29.79S
#PENDLETON DNTN N/A         54  47  77  CALM    28.58S
#PDT AQUATIC CTRN/A         55  45  69  CALM    29.79R
#PDT SUNRIDGE   N/A         52  49  89  E2      29.79F
#PENDLETON 7NW  N/A         53  49  86  CALM    26.69R
#PILOT ROCK     N/A         53  48  83  CALM    29.81S
#TUTUILLA       N/A         52  49  89  CALM    29.76F
#UMAPINE 2E     N/A         54  52  93  CALM    29.75S
#WESTON SCHOOL  N/A         53  47  80  CALM    29.76S

$$

ORZ508-231510-
SOUTHERN FOOTHILLS OF THE BLUES

CITY            SKY/WX      TMP DP  RH  WIND    PRES   REMARKS
LEXINGTON       CLOUDY      55  54  96  E5      29.79F
#AJAX           N/A         52  44  74  CALM    29.75R
#CONDON SCHOOL  N/A         51  49  93  CALM    29.78S
#CONDON 5W      N/A         50  46  86  S8      29.78R
#FOSSIL SCHOOL  N/A         52  49  89  W1      29.78S
#HEPPNER EOC    N/A         54  50  86  E2      29.69S
#HEPPNER 4NE    N/A         51  48  89  SE2     29.73S
#LEXINGTON 2SE  N/A         55  51  86  SE2     29.76R
#MIKKALO        N/A         51  48  89  E2      29.78R
#OLEX 4N        N/A         52  49  89  S2      29.77S
#RUGGS 5NE      N/A         51  49  93  CALM    29.94S
#RUGGS 2SW      N/A         52  47  83  S5      29.75R

$$

ORZ502-503-231510-
BLUE MOUNTAINS

CITY            SKY/WX      TMP DP  RH  WIND    PRES   REMARKS
MEACHAM         CLOUDY      47  45  93  CALM    29.84R
#BATTLE MTN DOT N/A         50  45  83  S9      N/A
#HARDMAN 10S    N/A         50  42  74  S9      29.91R
#HEPPNER 15SE   N/A         52  42  69  S5      29.73R
#LADD CYN SMT   N/A         51  38  61  SE5     N/A
#LADD CREEK ODOTN/A         53  41  64  S7      N/A
#N POWDER DOT   N/A         53  42  66  SE23G30 N/A
#PIKES PEAK     N/A         50  45  83  S8      27.99S
#TROY SCHOOL    N/A         51  48  89  CALM    29.67S
#UKIAH          N/A         54  44  69  S3      29.81R
#WESTON 4E      N/A         51  44  77  SE3     29.71S
$$

ORZ505-231510-
JOHN DAY BASIN

CITY            SKY/WX      TMP DP  RH  WIND    PRES   REMARKS
JOHN DAY        MOCLDY      55  44  66  S14G25  29.91R
#JOHN DAY KJDY  N/A         57  45  64  W2      29.98F
#DAYVILLE SCHOOLN/A         61  42  50  S3      29.84R
#MT. VERNON 5SE N/A         52  43  71  SE8G25  29.85R
#WINLOCK        N/A         51  45  80  CALM    29.92R
$$

ORZ506-231510-
OCHOCO AND JOHN DAY HIGHLANDS

CITY            SKY/WX      TMP DP  RH  WIND    PRES   REMARKS
#BUCK CREEK DOT N/A         53  48  83  S20     N/A
#HORSE RIDGE DO N/A         48  44  86  S15G24  N/A    WCI 42
#KEYES SMT DOT  N/A         50  41  71  SE6     N/A
#PAULINA SCHOOL N/A         N/A N/A N/A SW14    29.90R
#PINE MTN OBS   N/A         40  39  96  SE26G41 N/A    WCI 29
#PRAIRIE CITY   N/A         53  39  59  NE1     29.88R
#SENECA         N/A         47  N/A N/A SE7     N/A
#SENECA 9NW     N/A         47  42  83  CALM    29.85F
$$

ORZ049-231510-
GRANDE RONDE VALLEY

CITY            SKY/WX      TMP DP  RH  WIND    PRES   REMARKS
LA GRANDE       CLOUDY      57  36  45  S9      29.85R
#COVE           N/A         59  45  60  SE5     29.77F
#COVE SCHOOL    N/A         59  43  55  S9      29.83F
#COVE 6NW       N/A         58  41  53  SE8     29.82F
#ELGIN 3N       N/A         56  40  55  S13     29.58R
#ELGIN 1E       N/A         56  42  59  S3      N/A
#IMBLER SCHOOL  N/A         63  35  35  SW3     29.84S
#ISLAND CITY 4N N/A         53  52  96  CALM    29.73F
#LADD CYN DOT   N/A         56  41  57  SW18G29 N/A
#UNION 1S       N/A         59  42  53  S12     29.68S
$$

ORZ050-231510-
WALLOWA COUNTY

CITY            SKY/WX      TMP DP  RH  WIND    PRES   REMARKS
JOSEPH AIRPORT  CLOUDY      57  36  45  SW15G38 29.85F
#ENTERPRISE HS  N/A         54  42  64  E9      29.88S
#IMNAHA SCHOOL  N/A         60  42  51  S10     29.83R
#IMNAHA 10S     N/A         57  43  59  SW8     29.88S
#JOSEPH 3N      N/A         55  42  61  N3      29.88R
#JOSEPH 3W      N/A         53  39  59  SW6     29.72R
#LOSTINE        N/A         56  41  57  E2      29.58F
#MT HOWARD 8000 N/A         35  33  92  S20G41  29.91R WCI 24
#PROMISE 1S     N/A         47  43  86  E3      29.88S
#SHEEP RDG 7000 N/A         42  35  76  CALM    29.80S
#WALLOWA SCHOOL N/A         52  44  74  CALM    30.71F



$$



USA.gov is the U.S. government's official web portal to all federal, state and local government web resources and services.